User: anonymous   Login
Location: Unspecified
(0.0000°N, 0.0000°E)
Time: 21:00:50
(UTC+00:00)
Language:

USA 200 - Orbit

View from above orbital plane
View from above orbital plane
View from above satellite
View from above satellite

Ground track
Ground track

The orbit data is extracted from the following two-line orbital elements,

1 32706U 08010A   16037.85692086 -.00000351  00000-0  00000-0 0    01
2 32706  63.1149  53.2721 7128462 268.8645  16.2863  2.00615000    03
Epoch (UTC): 06 February 2016 20:33:57
Eccentricity: 0.7128462
inclination: 63.1149°
perigee height: 1247 km
apogee height: 39107 km
right ascension of ascending node: 53.2721°
argument of perigee: 268.8645°
revolutions per day: 2.00615000
mean anomaly at epoch: 16.2863°
orbit number at epoch: 0

The dashed part of the orbit path shows where the satellite is in the earth's shadow,  

DLR